User: anonymous   Login
Location: Roanoke
(37.2710°N, 79.9420°W)
Time: 10:50:26
(UTC-04:00)
Language:

FENGYUN 3A - Orbit

View from above orbital plane
View from above orbital plane
View from above satellite
View from above satellite

Ground track
Ground track

The orbit data is extracted from the following two-line orbital elements,

1 32958U 08026A   15245.14870018  .00000048  00000-0  42650-4 0  9992
2 32958  98.4957 292.5960 0010237  23.0787 337.0844 14.19573984376549
Epoch (UTC): 02 September 2015 03:34:07
Eccentricity: 0.0010237
inclination: 98.4957°
perigee height: 819 km
apogee height: 834 km
right ascension of ascending node: 292.5960°
argument of perigee: 23.0787°
revolutions per day: 14.19573984
mean anomaly at epoch: 337.0844°
orbit number at epoch: 37654

The dashed part of the orbit path shows where the satellite is in the earth's shadow,  

DLR